Dewpoint
68 68 68 70 70 70 68 68 68 68 68 66 64 63 62 61 62 60 58 59 59 62 61 61 64 64 63 61 62 63 63 63 63 62 62 62 64 64 67 67 67 66 65 65 65 64 63 63 62 62 63 63 62 61 60 60 61 60 61 62 62 61 62 62 60 60 61 60 61 61 61 61 62 62 62 63 64 64 64 64 65 65 64 64 64
69 69 68 69 69 70 70 69 68 68 67 69 67 64 62 63 61 60 56 57 56 59 60 61 60 62 61 61 63 63 63 63 62 61 62 64 65 64 68 67 67 66 66 65 66 64 64 63 63 62 63 63 62 61 60 61 61 60 60 61 62 62 61 62 61 60 60 60 61 61 62 62 61 62 62 63 63 64 64 64 64 64 64 64 64
69 69 69 67 68 68 67 68 68 68 68 68 69 68 67 64 63 61 61 59 59 58 58 60 59 57 60 58 62 63 62 63 63 62 63 63 64 65 65 68 67 67 67 66 65 65 65 64 63 62 62 62 62 61 61 62 61 60 60 60 61 62 62 61 61 61 61 60 61 62 62 61 62 62 62 63 63 63 64 64 64 64 64 64 64
69 69 69 68 67 67 68 68 67 68 69 69 69 68 67 66 66 66 65 63 61 60 60 58 58 56 56 59 60 61 60 62 63 63 64 64 63 64 65 65 67 67 67 67 66 66 66 66 64 63 62 63 63 62 62 61 61 61 60 60 61 62 63 62 62 62 61 61 61 62 62 62 62 62 62 62 62 63 64 64 64 64 63 63 63
68 68 67 67 67 68 68 69 69 68 68 68 69 69 68 68 68 67 67 67 65 63 58 60 60 58 58 59 60 58 60 61 63 63 63 63 63 62 64 64 64 67 67 67 66 66 66 66 67 65 63 63 62 63 63 62 61 60 60 61 60 62 62 62 63 62 61 61 61 62 63 62 62 62 62 62 63 63 63 64 64 63 63 62 62
68 68 67 67 67 66 67 67 68 69 69 70 68 68 67 67 66 66 66 66 66 66 64 62 59 59 61 61 62 62 61 59 60 62 63 65 64 65 64 64 63 65 65 67 67 66 66 66 66 66 66 63 63 64 63 62 60 60 60 61 61 61 62 61 61 61 61 61 61 62 63 63 62 62 62 62 62 62 63 63 63 63 63 62 62
67 68 67 67 66 66 66 66 68 69 68 69 68 67 68 67 66 66 67 66 66 66 65 66 65 65 66 66 66 66 66 65 65 64 62 64 65 65 65 64 63 63 63 64 67 67 66 66 66 66 66 64 63 64 64 62 61 61 61 61 61 61 61 61 61 61 60 61 61 62 63 63 62 62 62 62 62 62 63 63 63 62 62 62 62
67 68 68 66 65 66 66 67 68 68 68 68 68 67 67 67 68 67 66 66 66 66 66 66 67 66 67 67 67 67 66 66 66 65 65 65 64 66 66 65 66 64 65 63 64 66 66 66 66 66 66 65 64 63 64 63 62 62 60 61 61 61 61 61 61 61 61 60 61 63 63 63 63 62 62 62 62 62 62 63 62 62 62 62 62
68 68 68 67 66 67 66 68 69 68 68 68 67 67 67 66 67 67 67 65 64 64 66 66 66 66 67 67 67 67 67 66 66 66 67 66 66 66 66 66 66 66 66 65 65 64 66 66 66 66 66 66 65 64 63 62 62 60 61 61 61 62 61 62 62 62 61 60 61 62 63 63 62 62 62 62 62 62 62 62 62 62 62 62 61
68 68 68 67 67 67 68 68 68 68 68 68 67 67 67 68 67 67 66 66 64 65 65 64 64 64 64 65 66 65 65 66 66 65 65 66 66 66 66 66 66 66 66 66 65 65 65 66 66 66 66 65 64 65 65 64 63 61 60 62 61 62 62 62 63 63 62 60 61 62 62 62 62 62 63 62 62 62 62 62 62 62 62 62 61
68 68 68 67 66 67 67 67 67 67 68 67 67 67 68 67 67 67 67 66 65 66 65 63 63 63 62 64 64 65 65 65 65 64 65 66 66 66 66 66 66 66 66 66 66 66 66 66 66 65 65 66 65 65 65 66 66 63 61 62 62 62 62 62 64 63 62 61 61 61 62 63 62 62 62 62 62 62 62 62 62 62 62 62 62
67 68 68 68 67 67 67 67 66 66 66 66 66 65 65 65 65 65 65 65 64 64 64 63 63 63 62 63 63 64 64 65 65 66 65 66 66 65 65 65 65 65 66 66 66 66 65 66 65 62 62 63 65 65 65 65 65 63 62 61 62 62 63 63 64 65 62 61 61 62 63 62 62 62 62 62 62 62 62 62 63 63 62 62 63
66 66 67 66 66 66 66 65 65 65 65 65 65 65 65 65 64 64 64 63 62 62 63 63 61 60 61 61 61 62 64 65 66 66 65 64 64 64 65 65 65 64 65 66 66 65 65 65 65 64 63 63 65 65 64 64 64 64 63 62 62 63 63 64 64 65 64 61 61 62 62 62 62 63 62 62 62 62 62 62 62 63 63 63 63
65 66 66 66 66 65 65 65 65 64 65 64 64 64 64 64 64 63 63 62 62 62 62 63 59 57 57 58 58 60 63 65 66 65 66 65 65 65 65 65 65 65 65 64 68 66 65 65 64 64 64 63 64 65 64 64 63 64 64 63 62 63 64 64 64 65 65 62 62 61 63 63 62 62 62 62 62 62 62 62 62 62 62 63 62
65 65 65 65 65 65 65 64 64 64 64 64 64 64 64 63 63 63 61 62 61 61 62 63 59 59 59 58 55 55 57 61 64 65 64 65 64 65 65 65 65 66 64 64 64 65 65 65 65 64 64 63 62 64 64 63 62 63 64 64 63 63 64 64 64 65 66 64 62 61 64 63 63 62 62 62 62 62 62 62 62 62 62 62 62
64 64 64 64 65 65 64 64 65 64 63 63 63 63 64 64 64 63 63 61 58 59 62 63 63 60 55 55 56 56 53 55 57 59 60 62 64 65 64 64 65 65 65 64 64 63 63 63 64 66 65 64 63 65 64 67 63 63 63 62 63 63 64 65 65 65 64 65 63 62 63 64 63 62 63 62 62 62 62 62 62 62 62 62 62
63 63 63 63 63 64 64 64 64 64 63 62 62 63 63 63 63 63 62 62 60 61 61 62 63 64 60 57 55 53 53 55 57 57 60 59 60 59 61 63 63 63 63 63 63 64 64 63 63 64 65 65 64 64 66 65 64 63 62 63 63 63 64 64 64 66 67 64 64 63 63 64 63 62 62 63 63 62 62 62 62 62 62 61 62
60 61 61 60 61 61 61 61 62 61 62 61 61 61 61 61 61 61 61 61 61 61 61 61 62 62 63 62 64 56 56 57 58 54 58 58 59 59 58 60 62 61 62 61 60 60 62 62 63 64 65 65 65 64 65 66 67 65 63 62 61 62 63 64 64 65 66 66 65 64 62 64 63 63 63 63 63 62 62 62 62 62 62 62 61
57 57 58 58 59 59 59 60 59 59 59 59 58 59 58 59 60 60 60 59 60 59 59 60 61 62 64 64 63 62 62 60 58 58 55 56 58 58 58 59 61 61 60 58 59 60 62 63 62 61 63 64 65 65 64 63 65 64 64 63 62 60 60 61 64 65 67 66 67 66 63 64 63 63 62 63 63 63 63 63 62 62 63 62 62
57 56 56 56 57 57 57 58 58 58 55 56 56 57 57 58 59 59 59 59 59 58 57 57 57 58 60 60 60 61 61 61 62 59 57 57 55 56 58 59 60 62 61 61 62 63 64 64 62 62 62 62 65 67 63 63 63 65 63 61 61 60 60 60 60 61 64 65 66 67 64 63 64 63 63 63 63 63 63 63 63 62 62 62 62
55 56 56 55 55 55 56 56 56 56 54 56 56 56 57 57 57 57 57 57 58 58 57 56 57 56 57 57 58 57 58 59 60 60 58 58 55 55 55 57 59 59 61 63 63 64 64 63 63 64 63 63 63 63 62 63 64 65 65 61 60 60 60 60 58 57 58 63 66 67 65 63 63 63 63 63 63 63 63 63 62 62 62 62 61
55 54 54 52 53 53 53 54 54 53 53 54 53 53 54 55 56 56 56 56 57 56 56 56 56 56 56 55 55 55 56 56 57 57 58 59 57 54 55 55 54 56 59 60 62 62 63 64 65 63 63 64 65 67 65 65 66 64 64 61 61 59 60 60 57 57 57 58 63 64 65 65 63 64 63 64 63 63 63 63 63 63 63 62 62
52 52 52 51 51 51 51 51 51 51 50 50 50 50 51 53 54 55 55 55 54 54 55 55 55 54 55 54 54 54 54 53 54 55 56 56 55 56 55 53 53 55 57 59 59 60 60 63 64 64 64 63 65 65 64 65 64 62 62 61 61 60 60 59 56 55 56 59 61 64 65 65 64 63 63 64 63 64 63 64 64 63 63 62 62
51 50 50 50 50 50 50 50 49 50 49 50 50 50 51 51 51 52 53 52 52 52 53 52 52 52 53 52 52 53 54 54 54 54 54 54 55 55 54 54 54 53 55 59 58 58 59 60 62 63 65 64 63 64 63 63 63 62 62 61 60 59 60 60 57 56 54 57 59 62 65 66 64 63 63 63 63 64 64 64 63 63 64 63 63
49 49 50 50 49 49 49 48 48 49 49 49 50 49 50 49 49 51 51 51 49 50 49 50 50 50 49 50 51 52 52 52 53 54 54 54 53 53 52 53 53 53 54 55 55 55 56 59 61 63 64 65 64 63 63 63 64 62 61 62 59 58 58 60 59 57 55 54 57 60 63 64 65 63 63 63 63 64 64 63 61 60 61 60 61
49 49 49 48 47 48 49 48 48 48 48 49 49 49 50 47 49 50 50 49 49 49 49 50 50 50 50 49 50 50 50 51 51 52 52 52 52 52 51 51 53 52 53 53 53 53 54 56 58 60 62 63 63 63 64 62 64 61 60 62 62 58 56 57 59 58 56 54 54 58 59 62 63 64 62 62 62 62 62 59 58 58 57 56 57
47 48 48 48 48 47 47 47 47 48 47 48 48 48 50 48 48 49 49 49 49 49 48 49 48 48 50 48 48 48 48 49 50 50 50 51 51 52 52 52 51 51 52 51 52 53 53 54 55 57 60 64 64 64 64 64 63 62 60 63 63 58 56 57 58 59 57 55 54 55 56 58 59 59 59 59 59 58 59 60 59 57 57 56 57
48 48 47 47 47 46 46 46 46 46 46 47 47 47 48 47 47 48 47 48 49 49 48 48 48 48 48 48 47 47 48 48 48 49 49 50 51 51 52 51 50 49 51 51 52 52 53 54 55 57 57 60 63 64 63 62 64 61 60 64 64 62 56 55 56 58 58 56 55 55 55 56 57 57 57 57 59 59 60 60 59 58 56 56 59
48 47 47 46 46 46 45 45 45 45 46 46 46 46 47 46 47 46 46 47 47 47 47 47 48 47 46 47 46 45 46 48 48 48 49 50 50 51 52 52 52 51 50 49 49 50 51 54 55 56 60 61 63 65 65 64 63 63 65 64 64 64 58 55 55 55 57 56 55 54 55 56 57 58 60 59 59 60 59 58 58 58 57 58 60
46 47 46 46 45 45 44 44 45 44 45 45 45 45 46 44 46 45 45 47 46 46 46 46 47 47 46 46 46 45 47 48 47 48 48 49 49 50 50 51 51 51 50 48 48 49 51 53 52 56 63 62 63 64 65 67 63 64 64 64 63 64 58 54 54 53 54 55 54 52 52 54 57 59 60 59 59 59 58 57 56 57 57 59 61
45 45 44 43 44 43 44 43 43 43 43 44 45 45 45 44 45 43 44 45 44 44 45 46 46 46 46 46 46 45 46 47 48 48 48 48 47 47 47 48 49 50 50 49 48 48 50 50 52 53 55 60 61 62 63 63 64 64 65 66 65 61 59 58 54 54 53 54 53 53 53 54 54 56 58 59 59 59 59 58 57 57 59 61 58
43 43 42 42 42 42 42 41 42 42 42 43 44 43 44 44 44 44 44 43 42 43 44 44 44 45 45 44 44 44 44 43 45 46 46 46 47 45 46 46 46 48 48 47 47 46 48 49 49 50 50 54 56 58 61 61 63 60 64 66 66 60 63 63 54 54 54 53 53 54 56 56 54 56 58 59 58 59 58 58 58 59 58 57 56
42 42 42 41 40 41 41 41 40 41 41 43 43 43 43 43 43 44 43 41 41 42 43 43 43 44 44 43 42 43 43 43 43 43 44 44 45 44 45 44 44 45 46 46 45 45 47 48 48 47 49 52 52 56 57 61 61 63 62 65 65 65 65 65 63 54 53 52 52 52 52 53 53 56 58 58 59 58 57 56 56 55 55 54 54
41 41 40 42 40 40 40 39 40 39 40 40 41 42 42 43 43 43 43 41 42 41 42 41 42 44 44 43 42 42 42 40 41 42 42 42 41 41 42 43 42 43 45 44 43 43 43 44 44 46 47 49 51 52 52 55 61 63 63 65 65 65 65 64 64 62 52 52 52 52 52 52 52 54 54 54 55 55 54 53 53 52 53 51 50
41 41 40 40 40 39 39 40 40 39 39 39 41 41 41 41 40 42 43 42 42 42 42 41 40 42 42 42 41 41 41 41 42 42 42 42 42 41 42 42 42 42 43 43 43 42 42 42 44 44 45 47 48 49 51 52 55 60 65 65 65 65 64 65 65 64 52 51 51 51 51 51 52 52 53 53 53 53 53 52 52 51 50 50 49
39 41 40 38 38 39 39 39 39 38 39 39 39 40 40 41 40 40 40 41 41 41 41 40 40 41 40 40 40 40 39 39 40 40 41 41 40 40 40 40 41 41 42 42 42 41 41 41 42 42 43 44 46 46 48 52 53 55 61 64 65 64 64 64 63 64 58 51 51 51 51 52 51 51 51 52 52 53 52 51 51 50 49 50 49
38 39 38 38 38 38 41 39 39 38 38 38 38 38 40 41 40 40 40 40 41 40 41 41 41 41 40 39 39 38 37 40 41 40 40 41 39 39 39 38 39 40 40 40 40 41 40 40 41 42 43 44 45 47 49 52 55 56 61 64 63 64 64 65 63 64 59 51 50 51 51 51 51 51 51 51 52 52 52 51 50 50 49 50 49
38 38 39 38 38 37 38 38 38 37 37 37 37 37 38 39 41 41 41 41 40 39 39 40 39 39 40 38 38 37 39 41 41 40 40 41 40 39 39 38 37 38 40 40 40 40 40 39 40 41 42 43 43 45 47 49 52 53 56 58 61 62 63 63 65 64 63 60 56 54 52 51 51 51 51 51 51 51 51 51 50 50 49 49 49
37 37 38 37 38 38 38 39 38 38 37 37 37 38 38 38 39 39 41 40 40 40 40 39 38 38 37 37 37 38 39 39 39 40 40 40 39 39 40 40 39 39 39 38 38 39 39 39 40 40 40 42 43 42 43 47 51 53 54 56 57 60 62 63 62 64 64 64 58 53 54 54 54 54 51 50 51 52 51 51 51 50 50 49 48
38 36 36 37 38 37 39 39 39 38 37 35 36 37 37 39 40 41 40 40 40 40 41 39 39 38 37 36 36 38 39 39 39 39 39 38 38 38 38 38 38 38 38 38 38 37 38 39 39 39 39 40 41 43 44 46 49 52 55 56 56 56 59 63 63 63 65 63 61 58 54 53 53 53 51 50 51 51 51 51 51 51 50 49 48
39 36 36 37 37 37 38 40 38 38 37 36 38 38 38 38 40 39 40 40 40 39 39 38 38 36 36 37 37 38 40 41 41 41 40 39 38 37 37 38 38 38 38 38 38 37 37 38 38 39 39 39 40 41 41 42 44 46 50 53 54 58 58 61 63 65 64 63 62 60 58 57 57 57 56 55 55 53 54 52 53 51 50 48 48
38 38 37 38 37 38 38 39 39 38 36 37 39 38 38 38 39 40 41 40 38 37 38 37 37 36 36 37 39 40 40 40 40 40 39 39 38 38 37 38 38 38 37 37 37 37 38 37 37 38 38 38 38 40 41 43 44 46 47 50 52 54 56 57 61 63 64 64 63 61 59 59 59 59 58 57 57 55 56 55 57 53 51 48 48
39 38 38 37 39 39 38 38 38 38 36 37 38 37 37 38 39 41 40 39 39 38 37 36 37 36 36 36 38 39 38 39 37 38 37 37 37 37 38 38 39 38 37 37 37 38 38 37 37 38 37 37 38 39 40 41 43 44 44 47 49 51 54 53 54 59 64 64 62 61 59 59 59 58 59 58 58 57 57 57 53 51 50 48 47
38 39 39 38 39 40 40 38 38 37 36 38 36 37 37 37 38 41 40 38 38 36 35 36 36 36 36 37 37 38 37 37 36 35 36 37 37 37 37 37 38 38 38 39 38 37 37 37 37 37 37 37 37 39 39 40 40 42 44 45 46 49 52 53 54 55 62 64 62 60 59 59 59 59 58 59 59 58 57 56 51 51 50 48 47
39 38 38 39 39 40 40 38 38 35 35 37 36 37 37 37 37 39 37 38 37 36 36 37 36 36 36 36 36 36 35 38 37 34 35 36 37 37 38 38 38 38 36 36 37 39 38 38 37 37 37 38 38 38 40 40 41 41 42 41 43 45 48 52 54 54 58 64 63 60 59 59 58 57 59 59 60 59 58 53 51 50 50 48 47
38 38 39 39 39 39 39 39 37 35 34 37 36 37 37 36 36 38 38 37 37 35 34 35 36 35 35 35 34 34 34 35 35 35 35 35 36 37 37 37 37 38 37 37 37 37 38 38 37 37 37 38 37 38 40 40 40 40 40 41 43 44 46 48 52 55 58 64 61 60 58 59 58 58 57 59 60 60 60 55 50 50 49 48 47
37 36 37 38 38 38 38 39 38 37 35 37 36 36 36 36 36 38 38 38 36 36 34 35 34 34 34 35 34 33 33 34 35 36 35 35 36 36 36 36 37 37 37 37 37 37 37 37 37 37 37 37 38 38 39 39 40 41 41 42 42 43 45 47 50 53 55 58 61 60 57 59 59 58 58 60 60 60 60 54 50 49 49 48 47
37 36 36 36 37 37 37 38 38 37 35 36 36 36 36 36 37 37 36 36 35 34 33 34 31 32 33 33 32 33 33 34 36 35 35 35 35 36 36 36 36 37 37 38 37 37 38 37 37 37 37 37 37 38 38 38 38 39 40 41 42 43 44 45 45 48 51 57 62 59 58 58 59 58 58 60 60 59 60 59 50 49 49 48 47
37 36 36 35 36 36 36 37 39 37 35 36 36 36 36 36 37 37 35 33 33 33 33 32 30 32 31 32 32 32 34 34 35 34 34 35 36 35 36 36 36 36 36 36 37 36 36 37 36 36 36 36 37 37 37 37 37 38 38 38 38 39 41 41 43 45 48 54 59 60 59 58 59 58 58 59 59 57 58 59 58 49 49 48 47
35 35 35 34 35 36 36 36 36 37 36 36 36 36 36 36 37 37 33 33 33 33 31 32 32 30 32 40 37 33 33 33 34 34 34 36 35 36 36 36 35 35 35 36 36 37 37 36 36 36 36 36 36 37 37 37 37 38 38 37 39 39 39 40 41 44 46 52 57 59 58 58 59 58 57 57 56 57 58 59 58 54 48 48 47
35 34 34 34 34 35 36 37 37 36 36 35 36 36 36 36 37 37 32 32 32 33 31 30 30 32 33 35 38 36 34 35 34 34 34 35 35 36 36 35 35 35 35 36 36 36 36 36 36 36 36 37 38 38 39 39 39 41 40 39 40 40 39 40 42 43 46 50 58 60 57 58 57 56 56 53 53 55 56 58 58 57 54 53 51